Address 0xab7e46ca43700606f39d14e998aca817095ab523

 
 
Txn Hash Method
Block
From
To
Value [Txn Fee]
0xea7ab2fa0c44d8734e24d771bcb436fd62f58b6a144fca005ec629a11c259e030x1de9c881111926732021-09-24 11:45:5827 mins ago0xab7e46ca43700606f39d14e998aca817095ab523OUT 0x762e29bf51f08f8302fa6cf4f12d3680dd3304880 BNB0.000229819158
0x6240fc04b47737941d44c6ad8a4501de6d691583f798ca14042aa1225d77a1a00x1de9c881111925742021-09-24 11:41:0132 mins ago0xab7e46ca43700606f39d14e998aca817095ab523OUT 0x762e29bf51f08f8302fa6cf4f12d3680dd3304880 BNB0.00094227
0x9bef7904459d2ef811610eeadf966fb665550d939873518a80dd10772f666ab1Transfer111921662021-09-24 11:20:3053 mins ago0xab7e46ca43700606f39d14e998aca817095ab523SELF0xab7e46ca43700606f39d14e998aca817095ab5230 BNB0.00011655
0x7caced282bb6885f955aebc5a02107f9a514c13806b4fadc225783f49eaa525d0x1de9c881111915212021-09-24 10:47:551 hr 25 mins ago0xab7e46ca43700606f39d14e998aca817095ab523OUT 0x762e29bf51f08f8302fa6cf4f12d3680dd3304880 BNB0.00125155
0xd29395afec3a02f604838b9394dffc3273b577e64e43d117d073e508071501da0x1de9c881111911632021-09-24 10:29:591 hr 43 mins ago0xab7e46ca43700606f39d14e998aca817095ab523OUT 0x762e29bf51f08f8302fa6cf4f12d3680dd3304880 BNB0.000230085
0x496668567db5a914e5686c0a54d7ae629d049a735aedca87364157c832c024750x1de9c881111910352021-09-24 10:23:351 hr 50 mins ago0xab7e46ca43700606f39d14e998aca817095ab523OUT 0x762e29bf51f08f8302fa6cf4f12d3680dd3304880 BNB0.000230245
0xcf793a9e40aaba8e964ec9f3016f4b68d4a61b5047f4bd54eebc00ba0aa48d860x1de9c881111909602021-09-24 10:19:501 hr 53 mins ago0xab7e46ca43700606f39d14e998aca817095ab523OUT 0xc7064f072cdeb795dc591cf2d485385391af40d20 BNB0.000221015
0x592ff867905d36a78d826b375531983ca2bc5a095665f0afaaa6b0fc43fa73820x1de9c881111902422021-09-24 9:43:552 hrs 29 mins ago0xab7e46ca43700606f39d14e998aca817095ab523OUT 0x762e29bf51f08f8302fa6cf4f12d3680dd3304880 BNB0.000296821
0x4d5867bc0a52f7c18526708a9f71311df88d9127656b21e39de05a48e0e1d2000x1de9c881111898082021-09-24 9:22:112 hrs 51 mins ago0xab7e46ca43700606f39d14e998aca817095ab523OUT 0x762e29bf51f08f8302fa6cf4f12d3680dd3304880 BNB0.000254214
0xe672828cbed61cc920881ee72d42326b8e4a4ddc3fe83f1f110caa519145ffd00x1de9c881111897722021-09-24 9:20:232 hrs 53 mins ago0xab7e46ca43700606f39d14e998aca817095ab523OUT 0x762e29bf51f08f8302fa6cf4f12d3680dd3304880 BNB0.0002162757
0xbc373ff0ef7d28930e08bbcdbfd2f02a45692519b12cd52d2b4686045ae0eb110x1de9c881111897302021-09-24 9:18:172 hrs 55 mins ago0xab7e46ca43700606f39d14e998aca817095ab523OUT 0x762e29bf51f08f8302fa6cf4f12d3680dd3304880 BNB0.000264954
0xb08060d15f267cd7ef1dbab0257c755468aa414b8bff7503dfee7ee5d8692790Transfer111896952021-09-24 9:16:322 hrs 57 mins ago0xab7e46ca43700606f39d14e998aca817095ab523SELF0xab7e46ca43700606f39d14e998aca817095ab5230 BNB0.000128205
0xb987a27e90749f3787cdd9c912d51f91e402bc96aa704f792699c0a2f1ced3c90x1de9c881111855432021-09-24 5:48:356 hrs 25 mins ago0xab7e46ca43700606f39d14e998aca817095ab523OUT 0x762e29bf51f08f8302fa6cf4f12d3680dd3304880 BNB0.000230025
0xee36ac1c843c5f0ab1c53824a6229889351a092d2eae9f665e568605820bc4130x1de9c881111851172021-09-24 5:27:176 hrs 46 mins ago0xab7e46ca43700606f39d14e998aca817095ab523OUT 0xc7064f072cdeb795dc591cf2d485385391af40d20 BNB0.00027615
0x1b0dcb0e6043b3e46d6a23ee877a8b5fce75960be2a6bd7f771be81e068bd9d50x1de9c881111850172021-09-24 5:22:176 hrs 51 mins ago0xab7e46ca43700606f39d14e998aca817095ab523OUT 0x762e29bf51f08f8302fa6cf4f12d3680dd3304880 BNB0.000220915
0x71e896fa3853cf6c76b146160bbf21e01353728db8d7cf1c18a6db995d23e2b80x1de9c881111842962021-09-24 4:46:137 hrs 27 mins ago0xab7e46ca43700606f39d14e998aca817095ab523OUT 0x762e29bf51f08f8302fa6cf4f12d3680dd3304880 BNB0.000211965
0xd4ef3b4e1fba3c8f9d156ea0ca1013ca461674d2e25fbdd91e825c7b3da83ef00x1de9c881111839042021-09-24 4:26:377 hrs 47 mins ago0xab7e46ca43700606f39d14e998aca817095ab523OUT 0x762e29bf51f08f8302fa6cf4f12d3680dd3304880 BNB0.000212135
0x7f5b5e8366fed54f66106b67e78f5fd5013d4db32fbcfff1bcbe5d48ffbff3690x1de9c881111828602021-09-24 3:34:258 hrs 39 mins ago0xab7e46ca43700606f39d14e998aca817095ab523OUT 0x762e29bf51f08f8302fa6cf4f12d3680dd3304880 BNB0.000221178
0xbcc628314b3d8b828264ec8b85cc192f46ec0ec31a6f1b61bef5e91b9c45a9270x1de9c881111814102021-09-24 2:21:559 hrs 51 mins ago0xab7e46ca43700606f39d14e998aca817095ab523OUT 0xc7064f072cdeb795dc591cf2d485385391af40d20 BNB0.0002163981
0xb8f6cfbb0a98d7c3d1283f55fcc94e8a00d2d0963d6c7715061f0a71134366280x1de9c881111794292021-09-24 0:42:0911 hrs 31 mins ago0xab7e46ca43700606f39d14e998aca817095ab523OUT 0x762e29bf51f08f8302fa6cf4f12d3680dd3304880 BNB0.000203195
0x4a10497bd45cff590e02d4e40b09a55b0a1f5f61b475f5f7a35246d9e17883830x1de9c881111787982021-09-24 0:10:3612 hrs 3 mins ago0xab7e46ca43700606f39d14e998aca817095ab523OUT 0x762e29bf51f08f8302fa6cf4f12d3680dd3304880 BNB0.000223399
0xfdd2773b573e33581b6eaa9b2d97b72cd33f3f2a0536c206eae0b3237ca97391Transfer111785612021-09-23 23:58:4512 hrs 14 mins ago0xab7e46ca43700606f39d14e998aca817095ab523SELF0xab7e46ca43700606f39d14e998aca817095ab5230 BNB0.00011655
0x226e3826b01508397e91657e222d974a1e2c6dbb411ad43e863034cf645b05b40x1de9c881111750012021-09-23 21:00:4215 hrs 13 mins ago0xab7e46ca43700606f39d14e998aca817095ab523OUT 0x762e29bf51f08f8302fa6cf4f12d3680dd3304880 BNB0.000211845
0x2549986431e833904d5f8d07ae5711ea5980c5472a45602e33e0f0407ed4e9d90x1de9c881111736612021-09-23 19:53:4116 hrs 20 mins ago0xab7e46ca43700606f39d14e998aca817095ab523OUT 0x762e29bf51f08f8302fa6cf4f12d3680dd3304880 BNB0.000220955
0xa41d3b559280cba35d96d7a7f4ca352923c2390cd094f3ef92b0634b2612be760x1de9c881111726112021-09-23 19:01:1117 hrs 12 mins ago0xab7e46ca43700606f39d14e998aca817095ab523OUT 0x762e29bf51f08f8302fa6cf4f12d3680dd3304880 BNB0.000212255
[ Download CSV Export 
Parent Txn Hash Block From To Value
Loading

Contract Name:
0 BNB

Compiler Version
0

Optimization Enabled:
0 BNB

Other Settings:
-NA-
Block Transaction Gas Used Reward
Age Block Fee Address BC Fee Address Voting Power Jailed Incoming
Block Uncle Number Difficulty Gas Used Reward
Loading
Loading
Make sure to use the "Vote Down" button for any spammy posts, and the "Vote Up" for interesting conversations.